Location: Blanot
(47.1713°N, 4.2340°E)
Time: 20:31:45
(UTC+00:00)

NOSS 7 (D) - Pass Details

Date: 14 July 2020
Orbit: 307 x 616 km, 63.3° (Epoch: 14 August)

Event Time Altitude Azimuth Distance (km) Brightness Sun altitude
Rises 02:10:50 0° 314° (NW) 2,101 10.9 -14.2°
Reaches altitude 10° 02:12:47 10° 307° (NW) 1,296 9.8 -14.0°
Maximum altitude 02:15:29 41° 234° (SW) 541 7.3 -13.7°
Enters shadow 02:17:07 21° 174° (S) 916 8.5 -13.5°
